CZ-2C DEB (43531 NORAD) Tracking and Keplerian Element Data

This shows tracking and keplerian element data for the satellite.

Feedback or suggestion? Click here.




ElementValue
Catalog43531
NameCZ-2C DEB
Epoch Orbit461
Epoch Day219.63873985
Epoch Year2018
RAAN293.3688
Inclination97.8173
Eccentricity0.0135708
Argument of Perigee34.1181
Mean Anonmoly326.8857
Mean Motion15.68867746
Decay Rate0.00041111
L11 43531U 18056C 18219.63873985 .00041111 28225-5 21411-3 0 9990
L22 43531 97.8173 293.3688 0135708 34.1181 326.8857 15.68867746 4612

Live tracking and technical data element details for CZ-2C DEB (NORAD 43531). CZ-2C DEB can be tracked NOW for your location showing map with azimuth and elevation plus other details from your city location.

Track the satellite on the map from your city or location and see movement details for azimuth, elevation, latitude, longitude, range, height, and movement on the map or in text.







IsCatalogInMostPopularTable: catalog: 43531, numindb: 49
Update: records affected: 1



GetName: 43531 CZ-2C DEB

Hit Count: updated at: Sat, 17 Nov 2018 02:31:04 GMT